OE3APM-13 Weather Reports


Display with metric or nautical units.
time (UTC)temp
F
wind
direction
speed
MPH
gust
MPH
rain 1hr
in
rain 24hr
in
rain mn
in
humidity
%
barometer
mb
20260903184255 68 254 5.0 13.0 0.00 0.00 0.00 61 1021.2
20260903183751 68 279 5.0 13.0 0.00 0.00 0.00 60 1021.2
20260903183254 68 323 5.0 14.0 0.00 0.00 0.00 59 1021.1
20260903182751 69 265 5.0 14.0 0.00 0.00 0.00 58 1020.9
20260903182254 69 304 7.0 17.0 0.00 0.00 0.00 57 1020.8
20260903181752 69 335 8.0 17.0 0.00 0.00 0.00 57 1020.8
20260903181254 69 289 7.0 16.0 0.00 0.00 0.00 56 1020.6
20260903180751 69 278 7.0 16.0 0.00 0.00 0.00 55 1020.6
20260903180254 70 312 7.0 16.0 0.00 0.00 0.00 55 1020.5
20260903175748 70 275 6.0 16.0 0.00 0.00 0.00 54 1020.6
20260903175248 70 259 5.0 16.0 0.00 0.00 0.00 54 1020.5
20260903174746 70 279 6.0 12.0 0.00 0.00 0.00 54 1020.6
20260903174249 70 254 5.0 12.0 0.00 0.00 0.00 54 1020.6
20260903173741 70 271 5.0 11.0 0.00 0.00 0.00 54 1020.6
20260903173240 70 314 6.0 13.0 0.00 0.00 0.00 54 1020.5
20260903172740 70 316 6.0 13.0 0.00 0.00 0.00 54 1020.4
20260903172239 70 282 5.0 14.0 0.00 0.00 0.00 53 1020.3
20260903171737 70 290 5.0 14.0 0.00 0.00 0.00 53 1020.4
20260903171236 71 298 4.0 9.0 0.00 0.00 0.00 53 1020.4
20260903170735 71 270 4.0 8.0 0.00 0.00 0.00 54 1020.4
20260903170237 71 287 4.0 8.0 0.00 0.00 0.00 53 1020.4
20260903165734 71 308 4.0 8.0 0.00 0.00 0.00 53 1020.4
20260903165233 71 328 4.0 8.0 0.00 0.00 0.00 53 1020.4
20260903164730 71 299 5.0 10.0 0.00 0.00 0.00 52 1020.4
20260903164229 71 304 5.0 10.0 0.00 0.00 0.00 52 1020.4
20260903163729 72 326 6.0 12.0 0.00 0.00 0.00 52 1020.5
20260903163230 72 319 6.0 12.0 0.00 0.00 0.00 51 1020.5
20260903162730 72 323 6.0 14.0 0.00 0.00 0.00 51 1020.5
20260903162225 72 290 8.0 15.0 0.00 0.00 0.00 51 1020.4
20260903161719 72 283 8.0 15.0 0.00 0.00 0.00 50 1020.5
20260903161208 72 277 6.0 13.0 0.00 0.00 0.00 50 1020.5
20260903160708 72 331 5.0 13.0 0.00 0.00 0.00 50 1020.4
20260903160207 73 298 5.0 10.0 0.00 0.00 0.00 49 1020.3
20260903155709 73 322 6.0 14.0 0.00 0.00 0.00 49 1020.4
20260903155207 73 277 7.0 14.0 0.00 0.00 0.00 49 1020.3
20260903154706 73 340 7.0 14.0 0.00 0.00 0.00 49 1020.4
20260903154204 73 286 9.0 18.0 0.00 0.00 0.00 48 1020.4
20260903153704 73 305 9.0 18.0 0.00 0.00 0.00 47 1020.4
20260903153203 74 297 8.0 15.0 0.00 0.00 0.00 46 1020.4
20260903152704 74 316 8.0 16.0 0.00 0.00 0.00 46 1020.4
20260903152202 74 327 7.0 16.0 0.00 0.00 0.00 46 1020.3
20260903151703 75 326 6.0 16.0 0.00 0.00 0.00 46 1020.3
20260903151202 75 284 6.0 16.0 0.00 0.00 0.00 46 1020.2
20260903150703 75 277 6.0 14.0 0.00 0.00 0.00 46 1020.0
20260903150203 75 259 6.0 16.0 0.00 0.00 0.00 46 1020.0
20260903145704 75 269 5.0 16.0 0.00 0.00 0.00 46 1020.0
20260903145203 76 294 6.0 17.0 0.00 0.00 0.00 46 1020.0
20260903144703 76 263 7.0 17.0 0.00 0.00 0.00 45 1020.0
20260903144200 76 250 7.0 16.0 0.00 0.00 0.00 44 1020.0
20260903143652 76 257 9.0 16.0 0.00 0.00 0.00 43 1020.2
20260903143151 77 284 8.0 18.0 0.00 0.00 0.00 44 1020.2
20260903142650 77 225 7.0 18.0 0.00 0.00 0.00 42 1020.0
20260903142151 77 245 8.0 16.0 0.00 0.00 0.00 43 1020.3
20260903141649 77 299 8.0 16.0 0.00 0.00 0.00 43 1020.3
20260903141148 77 274 7.0 14.0 0.00 0.00 0.00 44 1020.3
20260903140648 77 321 7.0 16.0 0.00 0.00 0.00 44 1020.2
20260903140149 77 230 7.0 16.0 0.00 0.00 0.00 44 1020.0
20260903135650 77 229 6.0 18.0 0.00 0.00 0.00 44 1020.2
20260903135149 77 299 6.0 18.0 0.00 0.00 0.00 44 1020.3
20260903134649 77 265 6.0 18.0 0.00 0.00 0.00 43 1020.2
20260903134148 78 306 8.0 18.0 0.00 0.00 0.00 43 1020.2
20260903133648 78 262 8.0 23.0 0.00 0.00 0.00 42 1020.2
20260903133149 78 269 7.0 23.0 0.00 0.00 0.00 42 1020.0
20260903132646 78 280 8.0 16.0 0.00 0.00 0.00 41 1020.2
20260903132147 78 275 8.0 16.0 0.00 0.00 0.00 41 1020.2
20260903131643 78 277 8.0 16.0 0.00 0.00 0.00 41 1020.2
20260903131141 78 277 8.0 16.0 0.00 0.00 0.00 42 1020.3
20260903130641 78 256 7.0 16.0 0.00 0.00 0.00 42 1020.2
20260903130133 78 221 6.0 14.0 0.00 0.00 0.00 41 1020.2
20260903125630 78 274 6.0 14.0 0.00 0.00 0.00 43 1020.2
20260903125130 78 297 7.0 15.0 0.00 0.00 0.00 42 1020.3
20260903124631 78 277 7.0 15.0 0.00 0.00 0.00 42 1020.3
20260903124129 78 290 6.0 15.0 0.00 0.00 0.00 41 1020.4
20260903123630 79 242 7.0 15.0 0.00 0.00 0.00 41 1020.4
20260903123131 79 292 6.0 14.0 0.00 0.00 0.00 40 1020.5
20260903122630 80 316 5.0 14.0 0.00 0.00 0.00 40 1020.5
20260903122135 80 280 6.0 13.0 0.00 0.00 0.00 41 1020.4
20260903121631 79 288 7.0 13.0 0.00 0.00 0.00 42 1020.5
20260903121131 79 272 6.0 13.0 0.00 0.00 0.00 42 1020.5
20260903120630 79 311 5.0 12.0 0.00 0.00 0.00 44 1020.6
20260903120131 78 279 6.0 13.0 0.00 0.00 0.00 42 1020.7
20260903115633 78 346 5.0 13.0 0.00 0.00 0.00 42 1020.8
20260903115129 78 301 5.0 13.0 0.00 0.00 0.00 45 1020.8
20260903114632 78 269 6.0 13.0 0.00 0.00 0.00 43 1020.7
20260903114131 78 272 6.0 13.0 0.00 0.00 0.00 45 1020.8
20260903113630 78 272 6.0 16.0 0.00 0.00 0.00 43 1020.8
20260903113132 78 290 6.0 16.0 0.00 0.00 0.00 43 1020.8
20260903112630 78 225 5.0 16.0 0.00 0.00 0.00 43 1020.8
20260903112133 78 240 5.0 12.0 0.00 0.00 0.00 44 1020.8
20260903111632 77 227 5.0 12.0 0.00 0.00 0.00 44 1020.9
20260903111130 77 306 5.0 12.0 0.00 0.00 0.00 44 1021.0
20260903110631 76 270 7.0 15.0 0.00 0.00 0.00 46 1021.0
20260903110130 76 292 8.0 15.0 0.00 0.00 0.00 46 1021.1
20260903105630 76 323 7.0 13.0 0.00 0.00 0.00 45 1021.2
20260903105130 76 250 8.0 16.0 0.00 0.00 0.00 45 1021.2
20260903104630 75 311 8.0 16.0 0.00 0.00 0.00 46 1021.2
20260903104130 75 327 8.0 13.0 0.00 0.00 0.00 47 1021.3
20260903103630 74 332 8.0 13.0 0.00 0.00 0.00 47 1021.4
20260903103131 75 340 8.0 17.0 0.00 0.00 0.00 45 1021.3
20260903102629 75 341 8.0 17.0 0.00 0.00 0.00 46 1021.4
20260903102128 75 317 7.0 15.0 0.00 0.00 0.00 46 1021.4
20260903101623 75 315 7.0 15.0 0.00 0.00 0.00 45 1021.3
20260903101121 75 298 7.0 13.0 0.00 0.00 0.00 47 1021.3
20260903100621 75 296 7.0 13.0 0.00 0.00 0.00 45 1021.3
20260903100119 75 317 7.0 17.0 0.00 0.00 0.00 46 1021.3
20260903095620 75 286 8.0 17.0 0.00 0.00 0.00 47 1021.3
20260903095121 75 312 6.0 14.0 0.00 0.00 0.00 46 1021.3
20260903094618 75 328 6.0 16.0 0.00 0.00 0.00 47 1021.4
20260903094118 74 304 8.0 16.0 0.00 0.00 0.00 47 1021.5
20260903093619 74 336 8.0 15.0 0.00 0.00 0.00 47 1021.6
20260903093118 75 311 6.0 13.0 0.00 0.00 0.00 47 1021.7
20260903092621 75 285 6.0 15.0 0.00 0.00 0.00 48 1021.7
20260903092119 74 264 8.0 15.0 0.00 0.00 0.00 47 1021.7
20260903091618 74 277 9.0 17.0 0.00 0.00 0.00 48 1021.8
20260903091118 74 316 8.0 17.0 0.00 0.00 0.00 48 1021.8
20260903090618 74 333 7.0 14.0 0.00 0.00 0.00 48 1022.0
20260903090120 74 279 7.0 14.0 0.00 0.00 0.00 50 1021.8
20260903085616 74 300 6.0 14.0 0.00 0.00 0.00 48 1022.0
20260903085119 73 268 6.0 14.0 0.00 0.00 0.00 52 1022.0
20260903084617 73 307 7.0 14.0 0.00 0.00 0.00 50 1022.0
20260903084116 73 246 7.0 14.0 0.00 0.00 0.00 52 1022.0
20260903083616 72 314 6.0 12.0 0.00 0.00 0.00 54 1022.1
20260903083117 72 296 6.0 12.0 0.00 0.00 0.00 55 1022.1
20260903082616 71 307 7.0 14.0 0.00 0.00 0.00 55 1022.1
20260903082118 71 311 9.0 14.0 0.00 0.00 0.00 55 1022.2
20260903081614 70 324 9.0 16.0 0.00 0.00 0.00 56 1022.1
20260903081113 70 321 7.0 16.0 0.00 0.00 0.00 55 1022.0
20260903080612 70 324 6.0 14.0 0.00 0.00 0.00 57 1022.0
20260903080112 69 310 7.0 14.0 0.00 0.00 0.00 57 1022.1
20260903075612 69 301 7.0 13.0 0.00 0.00 0.00 58 1022.1
20260903075113 69 303 6.0 13.0 0.00 0.00 0.00 60 1022.1
20260903074610 68 298 6.0 13.0 0.00 0.00 0.00 60 1022.1
20260903074111 68 328 5.0 10.0 0.00 0.00 0.00 63 1022.1
20260903073611 67 311 5.0 13.0 0.00 0.00 0.00 65 1022.0
20260903073109 67 306 5.0 13.0 0.00 0.00 0.00 64 1022.1
20260903072609 66 303 5.0 9.0 0.00 0.00 0.00 66 1022.1
20260903072108 66 282 5.0 10.0 0.00 0.00 0.00 68 1022.1
20260903071609 65 296 5.0 10.0 0.00 0.00 0.00 70 1022.2
20260903071108 64 319 4.0 9.0 0.00 0.00 0.00 72 1022.1
20260903070609 63 304 3.0 7.0 0.00 0.00 0.00 75 1022.0
20260903070108 62 310 3.0 7.0 0.00 0.00 0.00 77 1022.0
20260903065609 61 298 2.0 6.0 0.00 0.00 0.00 78 1022.0
20260903065107 60 290 2.0 6.0 0.00 0.00 0.00 79 1022.0
20260903064607 60 279 2.0 5.0 0.00 0.00 0.00 81 1022.0
20260903064106 59 297 0.0 4.0 0.00 0.00 0.00 83 1022.0
20260903063606 58 337 0.0 0.0 0.00 0.00 0.00 84 1022.0
20260903063104 58 337 0.0 0.0 0.00 0.00 0.00 85 1022.0
20260903062603 57 337 0.0 0.0 0.00 0.00 0.00 86 1021.8
20260903062058 57 337 0.0 0.0 0.00 0.00 0.00 86 1021.8
20260903061555 56 337 0.0 0.0 0.00 0.00 0.00 86 1021.8
20260903061049 56 337 0.0 0.0 0.00 0.00 0.00 87 1021.8
20260903060541 56 337 0.0 0.0 0.00 0.00 0.00 87 1021.8
20260903060032 56 337 0.0 0.0 0.00 0.00 0.00 87 1022.0
20260903055527 56 337 0.0 0.0 0.00 0.00 0.00 87 1022.0
20260903055025 55 337 0.0 0.0 0.00 0.00 0.00 87 1022.0
20260903054525 55 338 0.0 0.0 0.00 0.00 0.00 86 1021.8
20260903054025 55 338 0.0 0.0 0.00 0.00 0.00 86 1021.7
20260903053524 55 338 0.0 0.0 0.00 0.00 0.00 86 1021.7
20260903053027 55 338 0.0 0.0 0.00 0.00 0.00 86 1021.7
20260903052521 55 338 0.0 0.0 0.00 0.00 0.00 86 1021.7
20260903052022 55 338 0.0 0.0 0.00 0.00 0.00 86 1021.6
20260903051521 55 338 0.0 0.0 0.00 0.00 0.00 86 1021.7
20260903051020 55 338 0.0 0.0 0.00 0.00 0.00 86 1021.7
20260903050518 55 338 0.0 0.0 0.00 0.00 0.00 86 1021.5
20260903050020 55 338 0.0 0.0 0.00 0.00 0.00 87 1021.5
20260903045520 55 338 0.0 0.0 0.00 0.00 0.00 87 1021.5
20260903045015 55 338 0.0 0.0 0.00 0.00 0.00 87 1021.5
20260903044516 55 338 0.0 0.0 0.00 0.00 0.00 87 1021.4
20260903044017 55 338 0.0 0.0 0.00 0.00 0.00 87 1021.4
20260903043516 55 338 0.0 0.0 0.00 0.00 0.00 88 1021.3
20260903043015 55 338 0.0 0.0 0.00 0.00 0.00 88 1021.3
20260903042516 55 338 0.0 0.0 0.00 0.00 0.00 88 1021.3
20260903042013 55 338 0.0 0.0 0.00 0.00 0.00 88 1021.3
20260903041512 55 338 0.0 0.0 0.00 0.00 0.00 88 1021.3
20260903041015 55 338 0.0 0.0 0.00 0.00 0.00 89 1021.3
20260903040511 55 338 0.0 0.0 0.00 0.00 0.00 89 1021.2
20260903040009 55 338 0.0 0.0 0.00 0.00 0.00 88 1021.3
20260903035508 55 338 0.0 0.0 0.00 0.00 0.00 88 1021.2
20260903035012 55 338 0.0 0.0 0.00 0.00 0.00 88 1021.2
20260903034508 55 338 0.0 0.0 0.00 0.00 0.00 88 1021.2
20260903034009 55 338 0.0 0.0 0.00 0.00 0.00 88 1021.2
20260903033506 55 338 0.0 0.0 0.00 0.00 0.00 88 1021.2
20260903033005 55 338 0.0 0.0 0.00 0.00 0.00 88 1021.2
20260903032507 55 338 0.0 0.0 0.00 0.00 0.00 89 1021.2
20260903032005 55 338 0.0 0.0 0.00 0.00 0.00 89 1021.3
20260903031503 55 338 0.0 0.0 0.00 0.00 0.00 88 1021.3
20260903030954 54 338 0.0 0.0 0.00 0.00 0.00 88 1021.3
20260903030453 54 338 0.0 0.0 0.00 0.00 0.00 88 1021.3
20260903025954 54 338 0.0 0.0 0.00 0.00 0.00 88 1021.2
20260903025453 54 338 0.0 0.0 0.00 0.00 0.00 88 1021.2
20260903024948 54 338 0.0 0.0 0.00 0.00 0.00 88 1021.2
20260903024448 54 338 0.0 0.0 0.00 0.00 0.00 88 1021.3
20260903023949 54 338 0.0 0.0 0.00 0.00 0.00 88 1021.2
20260903023447 54 338 0.0 0.0 0.00 0.00 0.00 88 1021.2
20260903022942 54 338 0.0 0.0 0.00 0.00 0.00 88 1021.3
20260903022441 54 338 0.0 0.0 0.00 0.00 0.00 88 1021.3
20260903021938 54 338 0.0 0.0 0.00 0.00 0.00 88 1021.3
20260903021436 54 338 0.0 0.0 0.00 0.00 0.00 88 1021.3
20260903020937 54 338 0.0 0.0 0.00 0.00 0.00 88 1021.4
20260903020437 54 338 0.0 0.0 0.00 0.00 0.00 88 1021.3
20260903015937 54 338 0.0 0.0 0.00 0.00 0.00 88 1021.3
20260903015434 54 338 0.0 0.0 0.00 0.00 0.00 88 1021.3
20260903014932 54 338 0.0 0.0 0.00 0.00 0.00 88 1021.4
20260903014433 53 338 0.0 0.0 0.00 0.00 0.00 88 1021.4
20260903013934 53 338 0.0 0.0 0.00 0.00 0.00 88 1021.4
20260903013434 53 338 0.0 0.0 0.00 0.00 0.00 88 1021.5
20260903012929 53 338 0.0 0.0 0.00 0.00 0.00 88 1021.5
20260903012430 53 338 0.0 0.0 0.00 0.00 0.00 88 1021.5
20260903011930 53 338 0.0 0.0 0.00 0.00 0.00 87 1021.4
20260903011434 53 338 0.0 0.0 0.00 0.00 0.00 87 1021.4
20260903010929 53 338 0.0 0.0 0.00 0.00 0.00 88 1021.5
20260903010434 53 338 0.0 0.0 0.00 0.00 0.00 88 1021.5
20260903005929 53 338 0.0 0.0 0.00 0.00 0.00 88 1021.4
20260903005430 53 338 0.0 0.0 0.00 0.00 0.00 87 1021.5
20260903004929 53 338 0.0 0.0 0.00 0.00 0.00 87 1021.5
20260903004430 53 338 0.0 0.0 0.00 0.00 0.00 87 1021.5
20260903003929 53 338 0.0 0.0 0.00 0.00 0.00 88 1021.4
20260903003430 53 338 0.0 0.0 0.00 0.00 0.00 88 1021.3
20260903002929 53 338 0.0 0.0 0.00 0.00 0.00 87 1021.3
20260903002428 53 338 0.0 0.0 0.00 0.00 0.00 86 1021.3
20260903001929 53 338 0.0 0.0 0.00 0.00 0.00 85 1021.3
20260903001431 53 338 0.0 0.0 0.00 0.00 0.00 85 1021.3
20260903000931 53 338 0.0 0.0 0.00 0.00 0.00 85 1021.3
20260903000450 53 338 0.0 0.0 0.00 0.00 0.00 85 1021.3
20260902235927 53 338 0.0 0.0 0.00 0.00 0.00 85 1021.3
20260902235426 53 338 0.0 0.0 0.00 0.00 0.00 85 1021.3
20260902234927 53 338 0.0 0.0 0.00 0.00 0.00 85 1021.3
20260902234426 53 338 0.0 0.0 0.00 0.00 0.00 84 1021.3
20260902233924 53 338 0.0 0.0 0.00 0.00 0.00 84 1021.4
20260902233420 53 338 0.0 0.0 0.00 0.00 0.00 84 1021.4
20260902232921 53 338 0.0 0.0 0.00 0.00 0.00 84 1021.5
20260902232422 53 338 0.0 0.0 0.00 0.00 0.00 84 1021.5
20260902231918 54 338 0.0 0.0 0.00 0.00 0.00 82 1021.5
20260902231415 54 338 0.0 0.0 0.00 0.00 0.00 82 1021.6
20260902230914 54 338 0.0 0.0 0.00 0.00 0.00 82 1021.5
20260902230413 54 338 0.0 0.0 0.00 0.00 0.00 82 1021.5
20260902225910 54 338 0.0 0.0 0.00 0.00 0.00 82 1021.6
20260902225408 55 338 0.0 0.0 0.00 0.00 0.00 81 1021.5
20260902224908 55 338 0.0 0.0 0.00 0.00 0.00 80 1021.5
20260902224408 55 338 0.0 0.0 0.00 0.00 0.00 80 1021.5
20260902223908 55 338 0.0 0.0 0.00 0.00 0.00 80 1021.5
20260902223407 56 338 0.0 0.0 0.00 0.00 0.00 80 1021.5
20260902222906 56 338 0.0 0.0 0.00 0.00 0.00 79 1021.6
20260902222404 56 338 0.0 0.0 0.00 0.00 0.00 79 1021.6
20260902221902 56 338 0.0 0.0 0.00 0.00 0.00 79 1021.5
20260902221402 56 338 0.0 0.0 0.00 0.00 0.00 79 1021.4
20260902220904 57 338 0.0 0.0 0.00 0.00 0.00 78 1021.6
20260902220404 57 338 0.0 0.0 0.00 0.00 0.00 77 1021.5
20260902215859 57 338 0.0 0.0 0.00 0.00 0.00 77 1021.5
20260902215401 57 338 0.0 0.0 0.00 0.00 0.00 78 1021.5
20260902214903 58 338 0.0 0.0 0.00 0.00 0.00 77 1021.5
20260902214355 58 338 0.0 0.0 0.00 0.00 0.00 77 1021.5
20260902213853 58 338 0.0 0.0 0.00 0.00 0.00 78 1021.5
20260902213353 59 338 0.0 0.0 0.00 0.00 0.00 77 1021.4
20260902212851 59 338 0.0 0.0 0.00 0.00 0.00 77 1021.4
20260902212351 59 338 0.0 0.0 0.00 0.00 0.00 76 1021.5
20260902211900 59 338 0.0 0.0 0.00 0.00 0.00 75 1021.5
20260902211350 60 338 0.0 0.0 0.00 0.00 0.00 75 1021.4
20260902210846 60 338 0.0 0.0 0.00 0.00 0.00 75 1021.4
20260902210345 60 338 0.0 0.0 0.00 0.00 0.00 75 1021.3
20260902205843 60 338 0.0 0.0 0.00 0.00 0.00 75 1021.3
20260902205340 60 338 0.0 0.0 0.00 0.00 0.00 74 1021.2
20260902204838 61 338 0.0 0.0 0.00 0.00 0.00 73 1021.3
20260902204336 61 338 0.0 0.0 0.00 0.00 0.00 74 1021.3
20260902203836 61 338 0.0 0.0 0.00 0.00 0.00 72 1021.2
20260902203332 61 338 0.0 0.0 0.00 0.00 0.00 72 1021.2
20260902202829 61 338 0.0 0.0 0.00 0.00 0.00 71 1021.2
20260902202331 62 338 0.0 0.0 0.00 0.00 0.00 71 1021.2
20260902201830 62 338 0.0 0.0 0.00 0.00 0.00 70 1021.2
20260902201331 62 338 0.0 0.0 0.00 0.00 0.00 69 1021.3
20260902200831 62 338 0.0 0.0 0.00 0.00 0.00 69 1021.3
20260902200331 62 338 0.0 0.0 0.00 0.00 0.00 69 1021.2
20260902195832 62 338 0.0 0.0 0.00 0.00 0.00 68 1021.2
20260902195329 62 338 0.0 0.0 0.00 0.00 0.00 68 1021.2
20260902194830 63 338 0.0 0.0 0.00 0.00 0.00 67 1021.1
20260902194331 63 338 0.0 0.0 0.00 0.00 0.00 67 1021.2
20260902193831 63 338 0.0 0.0 0.00 0.00 0.00 67 1021.2
20260902193328 63 338 0.0 0.0 0.00 0.00 0.00 66 1021.2
20260902192827 63 338 0.0 0.0 0.00 0.00 0.00 66 1021.2
20260902192326 64 338 0.0 0.0 0.00 0.00 0.00 66 1021.2
20260902191824 64 338 0.0 0.0 0.00 0.00 0.00 66 1021.1
20260902191323 64 338 0.0 0.0 0.00 0.00 0.00 65 1021.1
20260902190822 64 338 0.0 0.0 0.00 0.00 0.00 65 1021.1
20260902190321 64 338 0.0 0.0 0.00 0.00 0.00 64 1021.1
20260902185820 65 338 0.0 1.0 0.00 0.00 0.00 63 1021.1
20260902185321 65 338 1.0 2.0 0.00 0.00 0.00 63 1021.0
20260902184818 65 338 1.0 2.0 0.00 0.00 0.00 63 1021.0